YAOGAN 29

Satellite information

Favourite Embed

Satellite Type and Status

PAYLOADIN ORBIT

Key statistics

Satellite YAOGAN 29 at a glance.

Uptime

3671

Days in orbit

Revolutions

≈ 14.8

Per day

Orbit

SSO

Sun Synchronous Orbit

Inclination

98.0

Latest

Satellite identification and parameters

Extended collection of information and parameters for YAOGAN 29.

Object identification

Identified? True

Debris? False

Object name: YAOGAN 29

International designator: 2015-069A

Object number (NORAD): 41038

Object ID (CCSDS): 41038

Country: PEOPLES REPUBLIC OF CHINA (PRC)

Current information (Y/N): Y

RCS size: LARGE

Orbital parameters

Period: 97.108 minutes

Inclination: 98.0223 deg

SMA: 6998.369 km

Apoapsis: 620.304 km

Periapsis: 620.164 km

RAAN: 10.8716 deg

Eccentricy: 0.00000995

Argument of periapsis: 281.8676 deg

Mean anomaly: 78.2526 deg

Mean motion: 14.82885115 rev/day

Mean motion (dot): 0.00001138 rev/day2

B* drag term: 0.00014713133 1/REarth

Two-line elements (TLE)

Creation date: Dec. 14, 2025, 3:07 a.m.

Reference frame: TEME

Reference center: EARTH

Epoch: Dec. 13, 2025, 4:43 p.m. UTC

TLE line 0: 0 YAOGAN 29

TLE line 1: 1 41038U 15069A 25347.69682029 .00001138 00000-0 14713-3 0 9992

TLE line 2: 2 41038 98.0223 10.8716 0000100 281.8676 78.2526 14.82885115543133

Live tracking on map

Real-time ground track for satellite YAOGAN 29.

In-orbit conjunctions

There are no conjunctions computed for YAOGAN 29, at the moment. Check back to stay up to date, as we update our databases every day.

Go to all conjunctions

Associated space launch

YAOGAN 29 was lifted into orbit during the mission ‘Long March 4C | Yaogan-29’, on board a Long March 4C space rocket.

The launch took place on Nov. 26, 2015, 9:24 p.m. from Launch Complex 9.

For more information about the launch, click the button.

Launch to space Long March 4C | Yaogan-29
Long March 4C | Yaogan-29

Agency: N/A

Status: Launch Successful

Launch date: Nov. 26, 2015, 9:24 p.m. UTC

Rocket: Long March 4C

Launch pad: Launch Complex 9

Location: Taiyuan Satellite Launch Center, People's Republic of China

...

Latest news about this satellite

There are no fresh news available about this satellite. Check back as we update our databases every day.


Newsletter sign-up

Weekly statistics, charts and insights to help you stay on top of the space industry.